Simultaneous Nadir Overpasses (SNOs) Predictions

Prediction of SNOs between GOES-17 and AQUA Satellite Orbit:

Table of predicted SNOs for the next 14.0 days since TLE Epoch: 4/22/2023
Index Date Time (GOES-17) GOES-17 Lat,Lon AQUA Lat,Lon Distance(km) Time Diff (sec)
1 04/22/2023 08:55:25 -0.00,-104.74 0.40,-106.63 215.60 80
2 04/24/2023 08:38:53 0.00,-104.74 -0.31,-103.25 168.96 80
3 04/24/2023 20:59:51 -0.00,-104.73 -0.78,-108.33 408.92 80
4 04/26/2023 20:45:58 -0.00,-104.74 -0.07,-104.94 23.91 80
5 04/28/2023 20:34:45 -0.00,-104.74 0.69,-101.56 361.97 80
6 04/29/2023 08:55:34 -0.00,-104.75 0.39,-106.60 210.85 80
7 05/01/2023 08:38:59 -0.00,-104.75 -0.30,-103.20 175.56 80
8 05/01/2023 20:59:56 0.00,-104.75 -0.78,-108.28 402.23 80
9 05/03/2023 20:46:01 -0.00,-104.75 -0.02,-104.89 15.15 80
10 05/05/2023 20:34:45 0.00,-104.76 0.73,-101.49 371.98 80
